Regional Weather Roundup
Issued by NWS

Home | Current Version | Previous Version | Text Only | Print | Product List | Glossary Off
Versions: 1 2 3 4 5 6 7 8 9 10 11 12 13 14 15 16 17 18 19 20 21 22 23 24 25 26 27 28 29 30 31 32 33 34 35 36 37 38 39 40 41 42 43 44 45 46 47 48 49 50

325
ASUS45 KTFX 220910
RWRMT
MONTANA REGIONAL WEATHER ROUNDUP
NATIONAL WEATHER SERVICE GREAT FALLS MT
300 AM MDT TUE AUG 22 2017

NOTE: "FAIR" INDICATES FEW OR NO CLOUDS BELOW 12000 FEET WITH NO
SIGNIFICANT WEATHER AND/OR OBSTRUCTIONS TO VISIBILITY.

MTZ001>007-043-221000-
WEST OF THE DIVIDE

CITY           SKY/WX    TMP DP  RH WIND       PRES   REMARKS
KALISPELL      CLEAR     48  43  82 CALM      30.12S
MISSOULA       CLOUDY    59  42  53 CALM      30.15S HAZE
BUTTE          CLOUDY    45  33  63 SE6       30.28S
MULLAN PASS    CLEAR     61  33  35 E5        30.27S
ANACONDA         N/A     52  36  54 SW5       30.24S
DEER LODGE       N/A     48  36  61 CALM      30.25S
EUREKA           N/A     52  39  62 MISG      30.13S
HAMILTON         N/A     54  41  62 S3        30.17S
LIBBY            N/A     54  43  66 SE3       30.11S
PLAINS           N/A     51  38  61 CALM      30.12S
RONAN            N/A     48  41  77 CALM      30.16S
$$

MTZ008-052>055-221000-
SOUTHWEST MONTANA

CITY           SKY/WX    TMP DP  RH WIND       PRES   REMARKS
BOZEMAN        CLOUDY    54  36  50 S7        30.22R
DILLON         CLEAR     52  31  44 S8        30.24S
W YELLOWSTONE  CLOUDY    37  34  87 CALM      30.35S
ENNIS          MOCLDY    46  32  57 CALM      30.30S
THREE FORKS      N/A     43  37  79 CALM      30.18R
TWIN BRIDGES     N/A     51  35  54 CALM      30.20R
$$

MTZ009-010-012-014-046-048-049-054-221000-
EAST SLOPES AND CENTRAL MONTANA

CITY           SKY/WX    TMP DP  RH WIND       PRES   REMARKS
CUT BANK       PTCLDY    53  35  50 NE3       30.16F
GREAT FALLS    CLEAR     52  34  50 SW3       30.16R
MALMSTROM AFB  CLEAR     57  35  43 SW10      30.15S
HELENA         CLEAR     58  36  43 E5        30.17F
CHOTEAU          N/A     54  37  54 W5        30.18F
CONRAD           N/A     50  39  65 N5        30.16F
$$

MTZ011-013-016-021-045-047-050-051-221000-
NORTH CENTRAL MONTANA

CITY           SKY/WX    TMP DP  RH WIND       PRES   REMARKS
HAVRE          MOCLDY    56  39  53 E5        30.12F
LEWISTOWN      CLEAR     51  35  54 E8        30.20F
N BAR RANCH      N/A     52  32  46 W7        30.26S
CHINOOK          N/A     55  39  54 E8        30.14S
$$

MTZ017>020-022>027-061-062-221000-
NORTHEAST MONTANA

CITY           SKY/WX    TMP DP  RH WIND       PRES   REMARKS
JORDAN           N/A     46  31  55 CALM      30.19R
SIDNEY         PTCLDY    46  37  71 CALM      30.19S
WOLF POINT     PTCLDY    49  31  49 CALM      30.19S
MALTA          PTCLDY    50  37  62 CALM      30.17S
PLENTYWOOD       N/A     48  34  57 CALM      30.18S
POPLAR           N/A     46  34  61 N3        30.19S
SCOBEY           N/A     43  28  55 CALM      30.17R
$$

MTZ028>42-056>058-221000-
SOUTHCENTRAL AND SOUTHEAST MONTANA

CITY           SKY/WX    TMP DP  RH WIND       PRES   REMARKS
BAKER          PTCLDY    48  35  60 SE3       30.22R
BILLINGS       CLOUDY    60  32  34 N8        30.17S
LIVINGSTON     CLOUDY    49  34  56 NW5       30.23S
MILES CITY     PTCLDY    58  35  42 CALM      30.18S
BIG TIMBER     CLOUDY    54  36  50 NW3       30.25R
LAUREL           N/A     57  30  36 CALM      30.15F
$$

REGIONAL REPORTS...DAKOTAS

CITY           SKY/WX    TMP DP  RH WIND       PRES   REMARKS
WILLISTON      CLEAR     45  37  73 CALM      30.18R
MINOT          CLEAR     50  41  71 SW9       30.12R
DICKINSON      CLEAR     44  37  76 VRB3      30.18S
BEACH          MOCLDY    41  37  87 CALM      30.23S
CROSBY           N/A     41  37  87 SW6       30.16S
TIOGA            N/A     41  41 100 W3        30.18S
WATFORD CITY     N/A     43  37  81 CALM      30.18S
BISMARCK       CLEAR     50  45  83 SW5       30.14S
GRAND FORKS    CLEAR     50  47  89 W8        29.99S
FARGO          CLEAR     51  48  89 W3        30.02S
BUFFALO SD       N/A     49  40  71 SW5       30.16R
RAPID CITY     CLEAR     48  41  76 NW7       30.22S
$$

REGIONAL REPORTS...WYOMING/IDAHO/WASHINGTON

CITY           SKY/WX    TMP DP  RH WIND       PRES   REMARKS
GILLETTE       CLEAR     53  36  52 S8        30.23F
SHERIDAN       CLEAR     49  38  65 N6        30.19F
BUFFALO WY     CLEAR     59  32  36 CALM      30.26F
CODY           CLEAR     56  35  45 CALM      30.26S
YELLOWSTONE LA   N/A     37  33  85 CALM      30.44R
IDAHO FALLS    CLOUDY    48  41  76 N3        30.22S
SALMON         CLEAR     50  38  63 CALM      30.19S
BOISE          CLEAR     66  39  37 SE12      30.06S
SPOKANE        CLEAR     66  46  48 E5        30.06F
$$

REGIONAL REPORTS...ALBERTA

CITY           SKY/WX    TMP DP  RH WIND       PRES   REMARKS
EDMONTON       CLOUDY    61  55  82 SW5       30.08S
CALGARY        PTCLDY    55  43  62 S2        30.14F
LETHBRIDGE     CLEAR     48  37  66 SW8       30.11S
MEDICINE HAT   PTCLDY    55  41  58 NE3       30.11S
$$

REGIONAL REPORTS...SASKATCHEWAN

CITY           SKY/WX    TMP DP  RH WIND       PRES   REMARKS
SWIFT CURRENT  PTCLDY    52  32  46 S12       30.15S
SASKATOON      MOCLDY    46  43  87 SE2       30.13S
$$




USA.gov is the U.S. government's official web portal to all federal, state and local government web resources and services.